Szeged, Hungary

1:05 PM CET on February 07, 2016 (GMT +0100)
Szeged

Weather History for LHUD - January, 2014

Change the Weather History Date:

Wednesday, January 22, 2014

  Actual Average (LRAR) Record (LRAR)
Temperature  
Mean Temperature 40 °F -  
Max Temperature 43 °F 39 °F 57 °F (2009)
Min Temperature 37 °F 27 °F 6 °F (2016)
Degree Days  
Heating Degree Days 25    
Moisture  
Dew Point 34 °F    
Average Humidity 78    
Maximum Humidity 93    
Minimum Humidity 59    
Precipitation  
Precipitation 0.00 in 0.03 in - ()
Sea Level Pressure  
Sea Level Pressure 29.86 in    
Wind  
Wind Speed 10 mph ()    
Max Wind Speed 16 mph    
Max Gust Speed -    
Visibility 10.2 miles    
Events Rain    
Averages and records for this station are not official NWS values.
T = Trace of Precipitation, MM = Missing Value Source: Averaged Metar Reports

Daily Weather History Graph

Daily Weather History Graph

Search for Another Location

Airport or City:

Trip Planner

Search our weather history database for the weather conditions in past years. The results will help you decide how hot, cold, wet, or windy it might be!

Date:

Astronomy

Jan. 22, 2014 Rise Set
Actual Time 7:13 AM CET 4:29 PM CET
Civil Twilight 6:40 AM CET 5:02 PM CET
Nautical Twilight 6:03 AM CET 5:39 PM CET
Astronomical Twilight 5:27 AM CET 6:14 PM CET
Moon 11:07 PM CET (1/22) 9:42 AM CET (1/22)
Length of Visible Light 10h 22m
Length of Day
9h 16m
Waning Gibbous, 68% of the Moon is Illuminated
Jan 22
Waning Gibbous
Jan 24
Last Quarter
Jan 30
New
Feb 6
First Quarter
Feb 15
Full

Hourly Weather History & Observations

Time (CET) Temp. Windchill Dew Point Humidity Pressure Visibility Wind Dir Wind Speed Gust Speed Precip Events Conditions
12:00 AM 42 °F - 40 °F 89% 29.75 in 3 mi NW 13.4 mph - - Rain Light Drizzle
12:45 AM 41.0 °F 33.9 °F 39.2 °F 93% 29.74 in 3.7 mi WNW 12.7 mph - N/A   Overcast
1:00 AM 41 °F - 39 °F 89% 29.75 in 4 mi WNW 13.4 mph - - Rain Light Drizzle
1:45 AM 41.0 °F 33.5 °F 37.4 °F 87% 29.74 in 4.3 mi WNW 13.8 mph - N/A   Mostly Cloudy
2:00 AM 40 °F - 37 °F 87% 29.76 in 4 mi WNW 13.4 mph - -   Partly Cloudy
2:45 AM 41.0 °F 33.9 °F 37.4 °F 87% 29.77 in 6.2 mi NW 12.7 mph - N/A   Mostly Cloudy
3:00 AM 40 °F - 36 °F 82% 29.76 in 12 mi NW 11.2 mph - -   Partly Cloudy
3:45 AM 39.2 °F 31.6 °F 35.6 °F 87% 29.77 in 6.2 mi WNW 12.7 mph - N/A   Mostly Cloudy
4:00 AM 40 °F - 36 °F 79% 29.77 in 16 mi WNW 13.4 mph - -   Partly Cloudy
4:45 AM 39.2 °F 33.0 °F 35.6 °F 87% 29.77 in 6.2 mi WNW 9.2 mph - N/A   Mostly Cloudy
5:00 AM 40 °F - 36 °F 80% 29.78 in 16 mi WNW 8.9 mph - -   Partly Cloudy
5:15 AM 39.2 °F 33.6 °F 35.6 °F 87% 29.77 in 6.2 mi WNW 8.1 mph - N/A   Mostly Cloudy
5:45 AM 39.2 °F 32.5 °F 35.6 °F 87% 29.77 in 6.2 mi WNW 10.4 mph - N/A   Mostly Cloudy
6:00 AM 40 °F - 35 °F 78% 29.79 in 16 mi WNW 11.2 mph - -   Partly Cloudy
6:15 AM 39.2 °F 32.5 °F 35.6 °F 87% 29.80 in 6.2 mi West 10.4 mph - N/A   Mostly Cloudy
6:44 AM 39.2 °F 32.0 °F 35.6 °F 87% 29.80 in 6.2 mi West 11.5 mph - N/A Rain Light Rain
6:45 AM 39.2 °F 32.0 °F 35.6 °F 87% 29.80 in 6.2 mi West 11.5 mph - N/A Rain Light Rain
7:00 AM 39 °F - 35 °F 80% 29.80 in 12 mi West 11.2 mph - - Rain Light Rain
7:15 AM 39.2 °F 32.0 °F 35.6 °F 87% 29.80 in 6.2 mi West 11.5 mph - N/A Rain Light Rain
7:45 AM 37.4 °F 29.8 °F 33.8 °F 87% 29.80 in 6.2 mi WNW 11.5 mph - N/A Rain Light Rain
8:00 AM 38 °F - 34 °F 80% 29.81 in 16 mi WNW 11.2 mph - - Rain Light Rain
8:15 AM 37.4 °F 29.3 °F 33.8 °F 87% 29.83 in 6.2 mi West 12.7 mph - N/A Rain Light Rain
8:45 AM 37.4 °F 28.9 °F 33.8 °F 87% 29.83 in 6.2 mi WNW 13.8 mph - N/A   Overcast
9:00 AM 38 °F - 33 °F 77% 29.84 in 16 mi WNW 13.4 mph - - Rain Light Rain
9:15 AM 39.2 °F 31.6 °F 33.8 °F 81% 29.83 in 6.2 mi West 12.7 mph - N/A   Overcast
9:45 AM 39.2 °F 30.8 °F 33.8 °F 81% 29.86 in 6.2 mi WNW 15.0 mph - N/A   Overcast
10:00 AM 39 °F - 33 °F 73% 29.86 in 19 mi WNW 15.7 mph - -   Partly Cloudy
10:15 AM 39.2 °F 30.8 °F 33.8 °F 81% 29.86 in 6.2 mi WNW 15.0 mph - N/A   Overcast
10:45 AM 39.2 °F 31.2 °F 33.8 °F 81% 29.86 in 6.2 mi WNW 13.8 mph - N/A   Overcast
11:00 AM 40 °F - 33 °F 68% 29.87 in 19 mi WNW 13.4 mph - -   Partly Cloudy
11:15 AM 41.0 °F 33.5 °F 33.8 °F 76% 29.86 in 6.2 mi WNW 13.8 mph - N/A   Overcast
11:45 AM 41.0 °F 32.8 °F 33.8 °F 76% 29.86 in 6.2 mi WNW 16.1 mph - N/A   Scattered Clouds
12:00 PM 40 °F - 34 °F 71% 29.86 in 19 mi WNW 15.7 mph - -   Partly Cloudy
12:15 PM 41.0 °F 33.5 °F 33.8 °F 76% 29.86 in 6.2 mi WNW 13.8 mph - N/A   Scattered Clouds
12:45 PM 41.0 °F 33.9 °F 33.8 °F 76% 29.86 in 6.2 mi WNW 12.7 mph - N/A   Mostly Cloudy
1:00 PM 41 °F - 34 °F 67% 29.86 in 19 mi WNW 13.4 mph - -   Partly Cloudy
1:15 PM 42.8 °F 35.8 °F 35.6 °F 76% 29.86 in 6.2 mi WNW 13.8 mph - N/A   Mostly Cloudy
1:45 PM 42.8 °F 35.8 °F 33.8 °F 70% 29.86 in 6.2 mi WNW 13.8 mph - N/A   Mostly Cloudy
2:00 PM 43 °F - 34 °F 61% 29.86 in 19 mi WNW 13.4 mph - -   Partly Cloudy
2:15 PM 42.8 °F 36.6 °F 33.8 °F 70% 29.86 in 6.2 mi NW 11.5 mph - N/A   Mostly Cloudy
2:45 PM 42.8 °F 36.6 °F 33.8 °F 70% 29.86 in 6.2 mi NW 11.5 mph - N/A   Mostly Cloudy
3:00 PM 43 °F - 34 °F 61% 29.88 in 19 mi NW 11.2 mph - -   Partly Cloudy
3:15 PM 42.8 °F 37.5 °F 33.8 °F 70% 29.89 in 6.2 mi NW 9.2 mph - N/A   Mostly Cloudy
3:45 PM 42.8 °F 39.3 °F 35.6 °F 76% 29.89 in 6.2 mi NW 5.8 mph - N/A   Mostly Cloudy
4:00 PM 43 °F - 35 °F 65% 29.89 in 19 mi NW 6.7 mph - -   Partly Cloudy
4:15 PM 42.8 °F 37.0 °F 33.8 °F 70% 29.89 in 6.2 mi NW 10.4 mph - N/A   Mostly Cloudy
4:45 PM 42.8 °F 35.8 °F 32.0 °F 66% 29.92 in 6.2 mi WNW 13.8 mph - N/A   Mostly Cloudy
5:00 PM 42 °F - 33 °F 59% 29.91 in 19 mi WNW 13.4 mph - -   Partly Cloudy
5:15 PM 41.0 °F 35.8 °F 32.0 °F 70% 29.92 in 6.2 mi NW 8.1 mph - N/A   Mostly Cloudy
5:45 PM 39.2 °F 35.0 °F 32.0 °F 75% 29.92 in 6.2 mi WNW 5.8 mph - N/A   Mostly Cloudy
6:00 PM 40 °F - 33 °F 67% 29.93 in 19 mi WNW 6.7 mph - -   Partly Cloudy
6:15 PM 39.2 °F 35.9 °F 33.8 °F 81% 29.92 in 6.2 mi West 4.6 mph - N/A   Mostly Cloudy
6:45 PM 39.2 °F 35.0 °F 32.0 °F 75% 29.95 in - West 5.8 mph - N/A   Clear
7:00 PM 38 °F - 32 °F 73% 29.94 in 19 mi West 4.5 mph - -   Partly Cloudy
7:15 PM 37.4 °F 34.9 °F 32.0 °F 81% 29.95 in - WSW 3.5 mph - N/A   Clear
7:45 PM 37.4 °F - 32.0 °F 81% 29.95 in - West 2.3 mph - N/A   Clear
8:00 PM 37 °F - 32 °F 75% 29.95 in 19 mi West 2.2 mph - -   Partly Cloudy
8:15 PM 37.4 °F 34.9 °F 32.0 °F 81% 29.95 in - SW 3.5 mph - N/A   Clear
8:45 PM 37.4 °F 33.8 °F 32.0 °F 81% 29.95 in - WSW 4.6 mph - N/A   Clear
9:00 PM 37 °F - 32 °F 77% 29.97 in 19 mi WSW 4.5 mph - -   Partly Cloudy
9:45 PM 37.4 °F 34.9 °F 33.8 °F 87% 29.98 in - West 3.5 mph - N/A   Clear
10:00 PM 37 °F - 33 °F 79% 29.98 in 19 mi West 4.5 mph - -   Partly Cloudy
10:45 PM 37.4 °F 32.1 °F 33.8 °F 87% 29.98 in - West 6.9 mph - N/A   Clear
11:00 PM 37 °F - 33 °F 79% 29.99 in 19 mi West 6.7 mph - -   Partly Cloudy
11:45 PM 37.4 °F 31.4 °F 32.0 °F 81% 29.98 in - WNW 8.1 mph - N/A   Clear